Home > Weather > Odense > Past weeks

Flag for Denmark Past Weather in Odense, Denmark — Yesterday and Last 2 Weeks

Now
73 °F

Sunny.


Feels Like: 76 °F
Forecast: 63 / 81 °F
Wind: 13 mph from South

Location: Odense / Beldringe

Current Time: Aug 25, 2016 at 10:21:08 AM

Latest Report: Aug 25, 2016 at 9:50 AM


Visibility: 10 mi

Pressure: 30.12 "Hg

Humidity: 61%

Dew Point: 59 °F

Location of OdenseLocation

Past Weather in Odense — Graph

°F

Odense Temperature Yesterday

Maximum temperature yesterday: 79 °F (at 3:50 PM)
Minimum temperature yesterday: 64 °F (at 9:50 PM)
Average temperature yesterday: 73 °F

High & Low Weather Summary for the Past Weeks

 TemperatureHumidityPressure
High79 °F (Aug 24, 3:50 PM)100% (Aug 12, 6:20 AM)30.30 "Hg (Aug 12, 6:20 AM)
Low48 °F (Aug 11, 7:20 AM)29% (Aug 17, 3:50 PM)29.83 "Hg (Aug 20, 5:20 PM)
Average63 °F76%30.04 "Hg
* Reported Aug 10 8:20 AM — Aug 25 8:50 AM, Odense, Weather by CustomWeather, © 2016

Note: Actual official high and low records may vary slightly from our data, if they occured in-between our weather recording intervals... More about our weather records

Advertising

Odense Weather History for the Previous 24 Hours

Scroll right to see more
 ConditionsComfort  
Time TempWeatherWind HumidityBarometerVisibility
8:50 AM
Thu, Aug 25
72 °FSunny.10 mph73%30.12 "Hg10 mi
7:50 AM64 °FSunny.6 mph94%30.12 "Hg10 mi
7:20 AM63 °FSunny.2 mph88%30.12 "Hg10 mi
6:50 AM61 °FClear.1 mph88%30.12 "Hg10 mi
9:50 PM
Wed, Aug 24
64 °FClear.7 mph94%30.21 "Hg10 mi
8:50 PM68 °FSunny.7 mph88%30.21 "Hg10 mi
7:50 PM73 °FPassing clouds.6 mph69%30.21 "HgN/A
6:50 PM75 °FSunny.9 mph61%30.21 "Hg10 mi
5:50 PM77 °FPassing clouds.9 mph51%30.21 "HgN/A
4:50 PM77 °FPassing clouds.10 mph54%30.21 "HgN/A
3:50 PM79 °FPassing clouds.10 mph51%30.24 "HgN/A
2:50 PM77 °FPassing clouds.9 mph57%30.24 "HgN/A
1:50 PM75 °FScattered clouds.10 mph61%30.24 "HgN/A
12:50 PM75 °FScattered clouds.9 mph61%30.27 "HgN/A
11:50 AM73 °FScattered clouds.8 mph65%30.27 "HgN/A
10:50 AM72 °FScattered clouds.8 mph73%30.30 "HgN/A
Weather by CustomWeather, © 2016

See weather overviewHow to use our weather pages